Regional Weather Roundup
Issued by NWS

Home | Current Version | Previous Version | Graphics & Text | Print | Product List | Glossary On
Versions: 1 2 3 4 5 6 7 8 9 10 11 12 13 14 15 16 17 18 19 20 21 22 23 24 25 26 27 28 29 30 31 32 33 34 35 36 37 38 39 40 41 42 43 44 45 46 47 48 49 50
000
ASUS43 KLMK 010202
RWRKY
KENTUCKY REGIONAL WEATHER ROUNDUP
NATIONAL WEATHER SERVICE LOUISVILLE KY
1000 PM EDT TUE MAY 31 2016

NOTE "FAIR" INDICATES FEW OR NO CLOUDS BELOW 12,000 FEET
WITH NO SIGNIFICANT WEATHER AND/OR OBSTRUCTIONS TO VISIBILITY.

KYZ001>023-026-027-061>063-070>075-010300-
WESTERN AND SOUTH CENTRAL KENTUCKY

CITY           SKY/WX    TMP DP  RH WIND       PRES   REMARKS
PADUCAH        PTCLDY    74  66  76 E3        29.90R
HENDERSON      CLEAR     79  61  53 CALM      29.92R
OWENSBORO      CLEAR     79  62  55 SE3       29.93R
HOPKINSVILLE   NOT AVBL
BOWLING GREEN  CLEAR     76  65  68 NE6       29.93R
GLASGOW        NOT AVBL
$$

KYZ024-025-028>034-038-045-046-053-010300-
NORTH CENTRAL KENTUCKY

CITY           SKY/WX    TMP DP  RH WIND       PRES   REMARKS
LOUISVILLE/SDF PTCLDY    80  59  48 E3        29.93R
LOUISVILLE/LOU CLEAR     78  59  51 CALM      29.94R
FORT KNOX      CLEAR     68  62  81 NE2       29.94R
$$

KYZ035>037-039>044-047>052-055>060-089>105-010300-
NORTHEAST KENTUCKY

CITY           SKY/WX    TMP DP  RH WIND       PRES   REMARKS
LEXINGTON      CLEAR     74  59  59 NE3       29.97R
COVINGTON      PTCLDY    74  60  61 CALM      29.97R
FRANKFORT      CLEAR     70  59  68 CALM      29.95R
$$

KYZ054-064>069-076>088-106>120-010300-
SOUTHEAST KENTUCKY

CITY           SKY/WX    TMP DP  RH WIND       PRES   REMARKS
JACKSON        CLEAR     74  57  55 CALM      29.99R
LONDON         CLEAR     74  60  61 CALM      29.97R
SOMERSET       NOT AVBL
MIDDLESBORO    PTCLDY    71  65  81 CALM      29.98R
MONTICELLO     CLEAR     69  66  90 NW3       29.98R
$$





USA.gov is the U.S. government's official web portal to all federal, state and local government web resources and services.